Location: PSU-Greenbush Astrophysical Observatory
(37.5140°N, 94.9880°W)
Time: 23:14:47
(UTC-06:00)

Altair - Pass Details

Date: 02 February 2020
Orbit: 1502 x 1682 km, 47.2° (Epoch: 19 February)

Event Time Altitude Azimuth Distance (km) Brightness Sun altitude
Rises 10:30:18 0° 291° (WNW) 4,905 9.7 28.4°
Reaches altitude 10° 10:33:36 10° 296° (WNW) 3,930 9.3 28.8°
Maximum altitude 10:43:28 53° 12° (NNE) 2,000 8.2 29.8°
Drops below altitude 10° 10:53:19 10° 88° (E) 3,922 10.1 30.8°
Sets 10:56:36 0° 93° (E) 4,894 10.5 31.1°
